Year,Month,Day,Hour,Minute,Value (Times are PST for temperature in C)
2006,07,21,00,00,20.00
2006,07,21,00,01,20.00
2006,07,21,00,02,20.00
2006,07,21,00,03,20.00
2006,07,21,00,04,19.90
2006,07,21,00,05,19.90
2006,07,21,00,06,19.90
2006,07,21,00,07,19.90
2006,07,21,00,08,19.90
2006,07,21,00,09,19.90
2006,07,21,00,10,19.80
2006,07,21,00,11,19.80
2006,07,21,00,12,19.80
2006,07,21,00,13,19.80
2006,07,21,00,14,19.80
2006,07,21,00,15,19.80
2006,07,21,00,16,19.80
2006,07,21,00,17,19.80
2006,07,21,00,18,19.70
2006,07,21,00,19,19.70
2006,07,21,00,20,19.70
2006,07,21,00,21,19.70
2006,07,21,00,22,19.70
2006,07,21,00,23,19.60
2006,07,21,00,24,19.60
2006,07,21,00,25,19.60
2006,07,21,00,26,19.60
2006,07,21,00,27,19.60
2006,07,21,00,28,19.60
2006,07,21,00,29,19.50
2006,07,21,00,30,19.50
2006,07,21,00,31,19.50
2006,07,21,00,32,19.50
2006,07,21,00,33,19.50
2006,07,21,00,34,19.50
2006,07,21,00,35,19.40
2006,07,21,00,36,19.40
2006,07,21,00,37,19.40
2006,07,21,00,38,19.40
2006,07,21,00,39,19.40
2006,07,21,00,40,19.40
2006,07,21,00,41,19.30
2006,07,21,00,42,19.30
2006,07,21,00,43,19.30
2006,07,21,00,44,19.30
2006,07,21,00,45,19.30
2006,07,21,00,46,19.30
2006,07,21,00,47,19.30
2006,07,21,00,48,19.20
2006,07,21,00,49,19.20
2006,07,21,00,50,19.20
2006,07,21,00,51,19.20
2006,07,21,00,52,19.20
2006,07,21,00,53,19.20
2006,07,21,00,54,19.10
2006,07,21,00,55,19.10
2006,07,21,00,56,19.10
2006,07,21,00,57,19.10
2006,07,21,00,58,19.10
2006,07,21,00,59,19.00
2006,07,21,01,00,19.00
2006,07,21,01,01,19.00
2006,07,21,01,02,19.00
2006,07,21,01,03,19.00
2006,07,21,01,04,19.00
2006,07,21,01,05,19.00
2006,07,21,01,06,19.00
2006,07,21,01,07,19.00
2006,07,21,01,08,19.00
2006,07,21,01,09,18.90
2006,07,21,01,10,18.90
2006,07,21,01,11,18.90
2006,07,21,01,12,18.90
2006,07,21,01,13,18.90
2006,07,21,01,14,18.90
2006,07,21,01,15,18.90
2006,07,21,01,16,18.90
2006,07,21,01,17,18.90
2006,07,21,01,18,18.90
2006,07,21,01,19,18.90
2006,07,21,01,20,18.90
2006,07,21,01,21,18.90
2006,07,21,01,22,18.90
2006,07,21,01,23,18.90
2006,07,21,01,24,18.90
2006,07,21,01,25,18.90
2006,07,21,01,26,18.90
2006,07,21,01,27,18.90
2006,07,21,01,28,18.90
2006,07,21,01,29,18.90
2006,07,21,01,30,18.90
2006,07,21,01,31,18.90
2006,07,21,01,32,18.90
2006,07,21,01,33,18.90
2006,07,21,01,34,18.90
2006,07,21,01,35,18.90
2006,07,21,01,36,18.90
2006,07,21,01,37,18.90
2006,07,21,01,38,18.90
2006,07,21,01,39,18.90
2006,07,21,01,40,18.90
2006,07,21,01,41,18.90
2006,07,21,01,42,18.90
2006,07,21,01,43,18.90
2006,07,21,01,44,18.90
2006,07,21,01,45,18.90
2006,07,21,01,46,18.90
2006,07,21,01,47,18.90
2006,07,21,01,48,18.80
2006,07,21,01,49,18.80
2006,07,21,01,50,18.80
2006,07,21,01,51,18.80
2006,07,21,01,52,18.80
2006,07,21,01,53,18.80
2006,07,21,01,54,18.70
2006,07,21,01,55,18.70
2006,07,21,01,56,18.70
2006,07,21,01,57,18.70
2006,07,21,01,58,18.70
2006,07,21,01,59,18.70
2006,07,21,02,00,18.70
2006,07,21,02,01,18.70
2006,07,21,02,02,18.70
2006,07,21,02,03,18.70
2006,07,21,02,04,18.70
2006,07,21,02,05,18.70
2006,07,21,02,06,18.70
2006,07,21,02,07,18.60
2006,07,21,02,08,18.60
2006,07,21,02,09,18.60
2006,07,21,02,10,18.60
2006,07,21,02,11,18.60
2006,07,21,02,12,18.60
2006,07,21,02,13,18.60
2006,07,21,02,14,18.60
2006,07,21,02,15,18.60
2006,07,21,02,16,18.60
2006,07,21,02,17,18.50
2006,07,21,02,18,18.50
2006,07,21,02,19,18.50
2006,07,21,02,20,18.50
2006,07,21,02,21,18.50
2006,07,21,02,22,18.50
2006,07,21,02,23,18.50
2006,07,21,02,24,18.50
2006,07,21,02,25,18.50
2006,07,21,02,26,18.40
2006,07,21,02,27,18.40
2006,07,21,02,28,18.40
2006,07,21,02,29,18.40
2006,07,21,02,30,18.40
2006,07,21,02,31,18.40
2006,07,21,02,32,18.40
2006,07,21,02,33,18.40
2006,07,21,02,34,18.40
2006,07,21,02,35,18.40
2006,07,21,02,36,18.40
2006,07,21,02,37,18.40
2006,07,21,02,38,18.40
2006,07,21,02,39,18.30
2006,07,21,02,40,18.30
2006,07,21,02,41,18.30
2006,07,21,02,42,18.30
2006,07,21,02,43,18.30
2006,07,21,02,44,18.40
2006,07,21,02,45,18.40
2006,07,21,02,46,18.40
2006,07,21,02,47,18.50
2006,07,21,02,48,18.50
2006,07,21,02,49,18.60
2006,07,21,02,50,18.60
2006,07,21,02,51,18.70
2006,07,21,02,52,18.70
2006,07,21,02,53,18.80
2006,07,21,02,54,18.90
2006,07,21,02,55,18.90
2006,07,21,02,56,18.90
2006,07,21,02,57,19.00
2006,07,21,02,58,19.00
2006,07,21,02,59,19.00
2006,07,21,03,00,18.90
2006,07,21,03,01,18.90
2006,07,21,03,02,18.90
2006,07,21,03,03,18.90
2006,07,21,03,04,18.90
2006,07,21,03,05,18.80
2006,07,21,03,06,18.80
2006,07,21,03,07,18.80
2006,07,21,03,08,18.70
2006,07,21,03,09,18.70
2006,07,21,03,10,18.70
2006,07,21,03,11,18.60
2006,07,21,03,12,18.60
2006,07,21,03,13,18.50
2006,07,21,03,14,18.50
2006,07,21,03,15,18.40
2006,07,21,03,16,18.30
2006,07,21,03,17,18.30
2006,07,21,03,18,18.20
2006,07,21,03,19,18.20
2006,07,21,03,20,18.20
2006,07,21,03,21,18.10
2006,07,21,03,22,18.10
2006,07,21,03,23,18.10
2006,07,21,03,24,18.00
2006,07,21,03,25,18.00
2006,07,21,03,26,18.00
2006,07,21,03,27,18.00
2006,07,21,03,28,18.00
2006,07,21,03,29,18.00
2006,07,21,03,30,18.00
2006,07,21,03,31,18.00
2006,07,21,03,32,18.00
2006,07,21,03,33,18.00
2006,07,21,03,34,18.00
2006,07,21,03,35,18.00
2006,07,21,03,36,18.00
2006,07,21,03,37,18.00
2006,07,21,03,38,18.00
2006,07,21,03,39,18.00
2006,07,21,03,40,18.00
2006,07,21,03,41,18.00
2006,07,21,03,42,18.00
2006,07,21,03,43,17.90
2006,07,21,03,44,17.90
2006,07,21,03,45,17.90
2006,07,21,03,46,17.90
2006,07,21,03,47,17.90
2006,07,21,03,48,17.90
2006,07,21,03,49,18.00
2006,07,21,03,50,18.10
2006,07,21,03,51,18.20
2006,07,21,03,52,18.30
2006,07,21,03,53,18.30
2006,07,21,03,54,18.40
2006,07,21,03,55,18.50
2006,07,21,03,56,18.50
2006,07,21,03,57,18.60
2006,07,21,03,58,18.60
2006,07,21,03,59,18.70
2006,07,21,04,00,18.70
2006,07,21,04,01,18.70
2006,07,21,04,02,18.70
2006,07,21,04,03,18.80
2006,07,21,04,04,18.80
2006,07,21,04,05,18.80
2006,07,21,04,06,18.80
2006,07,21,04,07,18.80
2006,07,21,04,08,18.80
2006,07,21,04,09,18.80
2006,07,21,04,10,18.80
2006,07,21,04,11,18.70
2006,07,21,04,12,18.70
2006,07,21,04,13,18.70
2006,07,21,04,14,18.70
2006,07,21,04,15,18.60
2006,07,21,04,16,18.60
2006,07,21,04,17,18.60
2006,07,21,04,18,18.50
2006,07,21,04,19,18.50
2006,07,21,04,20,18.40
2006,07,21,04,21,18.40
2006,07,21,04,22,18.40
2006,07,21,04,23,18.30
2006,07,21,04,24,18.30
2006,07,21,04,25,18.30
2006,07,21,04,26,18.20
2006,07,21,04,27,18.20
2006,07,21,04,28,18.20
2006,07,21,04,29,18.10
2006,07,21,04,30,18.10
2006,07,21,04,31,18.10
2006,07,21,04,32,18.10
2006,07,21,04,33,18.10
2006,07,21,04,34,18.10
2006,07,21,04,35,18.10
2006,07,21,04,36,18.10
2006,07,21,04,37,18.10
2006,07,21,04,38,18.10
2006,07,21,04,39,18.10
2006,07,21,04,40,18.10
2006,07,21,04,41,18.10
2006,07,21,04,42,18.10
2006,07,21,04,43,18.10
2006,07,21,04,44,18.00
2006,07,21,04,45,18.00
2006,07,21,04,46,18.00
2006,07,21,04,47,17.90
2006,07,21,04,48,17.90
2006,07,21,04,49,17.90
2006,07,21,04,50,17.80
2006,07,21,04,51,17.80
2006,07,21,04,52,17.80
2006,07,21,04,53,17.80
2006,07,21,04,54,17.70
2006,07,21,04,55,17.70
2006,07,21,04,56,17.70
2006,07,21,04,57,17.70
2006,07,21,04,58,17.70
2006,07,21,04,59,17.60
2006,07,21,05,00,17.60
2006,07,21,05,01,17.60
2006,07,21,05,02,17.60
2006,07,21,05,03,17.60
2006,07,21,05,04,17.60
2006,07,21,05,05,17.60
2006,07,21,05,06,17.60
2006,07,21,05,07,17.60
2006,07,21,05,08,17.60
2006,07,21,05,09,17.60
2006,07,21,05,10,17.50
2006,07,21,05,11,17.50
2006,07,21,05,12,17.50
2006,07,21,05,13,17.50
2006,07,21,05,14,17.50
2006,07,21,05,15,17.40
2006,07,21,05,16,17.40
2006,07,21,05,17,17.40
2006,07,21,05,18,17.40
2006,07,21,05,19,17.30
2006,07,21,05,20,17.30
2006,07,21,05,21,17.30
2006,07,21,05,22,17.20
2006,07,21,05,23,17.20
2006,07,21,05,24,17.20
2006,07,21,05,25,17.20
2006,07,21,05,26,17.10
2006,07,21,05,27,17.10
2006,07,21,05,28,17.10
2006,07,21,05,29,17.10
2006,07,21,05,30,17.10
2006,07,21,05,31,17.10
2006,07,21,05,32,17.10
2006,07,21,05,33,17.00
2006,07,21,05,34,17.00
2006,07,21,05,35,17.00
2006,07,21,05,36,16.90
2006,07,21,05,37,16.90
2006,07,21,05,38,16.90
2006,07,21,05,39,16.90
2006,07,21,05,40,17.00
2006,07,21,05,41,17.00
2006,07,21,05,42,17.00
2006,07,21,05,43,17.00
2006,07,21,05,44,17.00
2006,07,21,05,45,17.00
2006,07,21,05,46,17.00
2006,07,21,05,47,17.00
2006,07,21,05,48,16.90
2006,07,21,05,49,16.90
2006,07,21,05,50,16.90
2006,07,21,05,51,16.90
2006,07,21,05,52,16.90
2006,07,21,05,53,16.90
2006,07,21,05,54,16.90
2006,07,21,05,55,16.90
2006,07,21,05,56,16.90
2006,07,21,05,57,16.90
2006,07,21,05,58,17.00
2006,07,21,05,59,17.00
2006,07,21,06,00,17.00
2006,07,21,06,01,17.10
2006,07,21,06,02,17.10
2006,07,21,06,03,17.10
2006,07,21,06,04,17.20
2006,07,21,06,05,17.20
2006,07,21,06,06,17.20
2006,07,21,06,07,17.20
2006,07,21,06,08,17.20
2006,07,21,06,09,17.20
2006,07,21,06,10,17.30
2006,07,21,06,11,17.30
2006,07,21,06,12,17.30
2006,07,21,06,13,17.40
2006,07,21,06,14,17.40
2006,07,21,06,15,17.50
2006,07,21,06,16,17.60
2006,07,21,06,17,17.60
2006,07,21,06,18,17.70
2006,07,21,06,19,17.80
2006,07,21,06,20,17.80
2006,07,21,06,21,17.90
2006,07,21,06,22,18.00
2006,07,21,06,23,18.00
2006,07,21,06,24,18.10
2006,07,21,06,25,18.10
2006,07,21,06,26,18.20
2006,07,21,06,27,18.30
2006,07,21,06,28,18.30
2006,07,21,06,29,18.30
2006,07,21,06,30,18.40
2006,07,21,06,31,18.40
2006,07,21,06,32,18.40
2006,07,21,06,33,18.50
2006,07,21,06,34,18.50
2006,07,21,06,35,18.50
2006,07,21,06,36,18.60
2006,07,21,06,37,18.60
2006,07,21,06,38,18.70
2006,07,21,06,39,18.70
2006,07,21,06,40,18.80
2006,07,21,06,41,18.80
2006,07,21,06,42,18.80
2006,07,21,06,43,18.90
2006,07,21,06,44,18.90
2006,07,21,06,45,19.00
2006,07,21,06,46,19.00
2006,07,21,06,47,19.10
2006,07,21,06,48,19.10
2006,07,21,06,49,19.20
2006,07,21,06,50,19.30
2006,07,21,06,51,19.30
2006,07,21,06,52,19.40
2006,07,21,06,53,19.50
2006,07,21,06,54,19.60
2006,07,21,06,55,19.70
2006,07,21,06,56,19.70
2006,07,21,06,57,19.70
2006,07,21,06,58,19.80
2006,07,21,06,59,19.80
2006,07,21,07,00,19.80
2006,07,21,07,01,19.80
2006,07,21,07,02,19.90
2006,07,21,07,03,19.90
2006,07,21,07,04,20.00
2006,07,21,07,05,20.00
2006,07,21,07,06,20.10
2006,07,21,07,07,20.10
2006,07,21,07,08,20.10
2006,07,21,07,09,20.20
2006,07,21,07,10,20.20
2006,07,21,07,11,20.20
2006,07,21,07,12,20.30
2006,07,21,07,13,20.30
2006,07,21,07,14,20.30
2006,07,21,07,15,20.30
2006,07,21,07,16,20.30
2006,07,21,07,17,20.40
2006,07,21,07,18,20.40
2006,07,21,07,19,20.50
2006,07,21,07,20,20.50
2006,07,21,07,21,20.60
2006,07,21,07,22,20.60
2006,07,21,07,23,20.70
2006,07,21,07,24,20.70
2006,07,21,07,25,20.80
2006,07,21,07,26,20.90
2006,07,21,07,27,20.90
2006,07,21,07,28,21.00
2006,07,21,07,29,21.10
2006,07,21,07,30,21.10
2006,07,21,07,31,21.20
2006,07,21,07,32,21.30
2006,07,21,07,33,21.40
2006,07,21,07,34,21.50
2006,07,21,07,35,21.50
2006,07,21,07,36,21.60
2006,07,21,07,37,21.70
2006,07,21,07,38,21.70
2006,07,21,07,39,21.70
2006,07,21,07,40,21.80
2006,07,21,07,41,21.80
2006,07,21,07,42,21.80
2006,07,21,07,43,21.90
2006,07,21,07,44,21.90
2006,07,21,07,45,22.00
2006,07,21,07,46,22.00
2006,07,21,07,47,22.10
2006,07,21,07,48,22.10
2006,07,21,07,49,22.20
2006,07,21,07,50,22.30
2006,07,21,07,51,22.30
2006,07,21,07,52,22.40
2006,07,21,07,53,22.50
2006,07,21,07,54,22.60
2006,07,21,07,55,22.70
2006,07,21,07,56,22.80
2006,07,21,07,57,22.90
2006,07,21,07,58,23.00
2006,07,21,07,59,23.00
2006,07,21,08,00,23.10
2006,07,21,08,01,23.10
2006,07,21,08,02,23.20
2006,07,21,08,03,23.20
2006,07,21,08,04,23.20
2006,07,21,08,05,23.30
2006,07,21,08,06,23.40
2006,07,21,08,07,23.50
2006,07,21,08,08,23.50
2006,07,21,08,09,23.60
2006,07,21,08,10,23.70
2006,07,21,08,11,23.70
2006,07,21,08,12,23.80
2006,07,21,08,13,23.70
2006,07,21,08,14,23.70
2006,07,21,08,15,23.70
2006,07,21,08,16,23.70
2006,07,21,08,17,23.80
2006,07,21,08,18,23.90
2006,07,21,08,19,24.00
2006,07,21,08,20,24.00
2006,07,21,08,21,24.10
2006,07,21,08,22,24.20
2006,07,21,08,23,24.20
2006,07,21,08,24,24.10
2006,07,21,08,25,24.10
2006,07,21,08,26,24.10
2006,07,21,08,27,24.00
2006,07,21,08,28,24.00
2006,07,21,08,29,23.90
2006,07,21,08,30,23.90
2006,07,21,08,31,23.90
2006,07,21,08,32,23.90
2006,07,21,08,33,23.80
2006,07,21,08,34,23.80
2006,07,21,08,35,23.80
2006,07,21,08,36,23.80
2006,07,21,08,37,23.80
2006,07,21,08,38,23.80
2006,07,21,08,39,23.80
2006,07,21,08,40,23.80
2006,07,21,08,41,23.80
2006,07,21,08,42,23.90
2006,07,21,08,43,23.80
2006,07,21,08,44,23.90
2006,07,21,08,45,23.90
2006,07,21,08,46,23.90
2006,07,21,08,47,24.00
2006,07,21,08,48,24.10
2006,07,21,08,49,24.10
2006,07,21,08,50,24.20
2006,07,21,08,51,24.20
2006,07,21,08,52,24.30
2006,07,21,08,53,24.30
2006,07,21,08,54,24.40
2006,07,21,08,55,24.40
2006,07,21,08,56,24.50
2006,07,21,08,57,24.50
2006,07,21,08,58,24.60
2006,07,21,08,59,24.60
2006,07,21,09,00,24.70
2006,07,21,09,01,24.70
2006,07,21,09,02,24.70
2006,07,21,09,03,24.80
2006,07,21,09,04,24.80
2006,07,21,09,05,24.80
2006,07,21,09,06,24.80
2006,07,21,09,07,24.80
2006,07,21,09,08,24.90
2006,07,21,09,09,24.90
2006,07,21,09,10,25.00
2006,07,21,09,11,25.10
2006,07,21,09,12,25.10
2006,07,21,09,13,25.20
2006,07,21,09,14,25.30
2006,07,21,09,15,25.30
2006,07,21,09,16,25.30
2006,07,21,09,17,25.30
2006,07,21,09,18,25.40
2006,07,21,09,19,25.30
2006,07,21,09,20,25.30
2006,07,21,09,21,25.30
2006,07,21,09,22,25.30
2006,07,21,09,23,25.40
2006,07,21,09,24,25.40
2006,07,21,09,25,25.30
2006,07,21,09,26,25.30
2006,07,21,09,27,25.30
2006,07,21,09,28,25.20
2006,07,21,09,29,25.20
2006,07,21,09,30,25.10
2006,07,21,09,31,25.10
2006,07,21,09,32,25.20
2006,07,21,09,33,25.20
2006,07,21,09,34,25.20
2006,07,21,09,35,25.30
2006,07,21,09,36,25.30
2006,07,21,09,37,25.30
2006,07,21,09,38,25.40
2006,07,21,09,39,25.40
2006,07,21,09,40,25.50
2006,07,21,09,41,25.50
2006,07,21,09,42,25.60
2006,07,21,09,43,25.60
2006,07,21,09,44,25.60
2006,07,21,09,45,25.70
2006,07,21,09,46,25.80
2006,07,21,09,47,25.90
2006,07,21,09,48,25.90
2006,07,21,09,49,25.90
2006,07,21,09,50,26.00
2006,07,21,09,51,26.00
2006,07,21,09,52,26.10
2006,07,21,09,53,26.10
2006,07,21,09,54,26.10
2006,07,21,09,55,26.00
2006,07,21,09,56,26.00
2006,07,21,09,57,26.10
2006,07,21,09,58,26.10
2006,07,21,09,59,26.10
2006,07,21,10,00,26.20
2006,07,21,10,01,26.20
2006,07,21,10,02,26.30
2006,07,21,10,03,26.30
2006,07,21,10,04,26.30
2006,07,21,10,05,26.40
2006,07,21,10,06,26.50
2006,07,21,10,07,26.50
2006,07,21,10,08,26.60
2006,07,21,10,09,26.60
2006,07,21,10,10,26.50
2006,07,21,10,11,26.50
2006,07,21,10,12,26.50
2006,07,21,10,13,26.50
2006,07,21,10,14,26.50
2006,07,21,10,15,26.60
2006,07,21,10,16,26.60
2006,07,21,10,17,26.70
2006,07,21,10,18,26.70
2006,07,21,10,19,26.60
2006,07,21,10,20,26.60
2006,07,21,10,21,26.60
2006,07,21,10,22,26.60
2006,07,21,10,23,26.60
2006,07,21,10,24,26.60
2006,07,21,10,25,26.50
2006,07,21,10,26,26.50
2006,07,21,10,27,26.50
2006,07,21,10,28,26.50
2006,07,21,10,29,26.40
2006,07,21,10,30,26.50
2006,07,21,10,31,26.50
2006,07,21,10,32,26.50
2006,07,21,10,33,26.60
2006,07,21,10,34,26.60
2006,07,21,10,35,26.60
2006,07,21,10,36,26.60
2006,07,21,10,37,26.60
2006,07,21,10,38,26.60
2006,07,21,10,39,26.60
2006,07,21,10,40,26.60
2006,07,21,10,41,26.70
2006,07,21,10,42,26.80
2006,07,21,10,43,26.90
2006,07,21,10,44,27.00
2006,07,21,10,45,27.10
2006,07,21,10,46,27.10
2006,07,21,10,47,27.10
2006,07,21,10,48,27.20
2006,07,21,10,49,27.10
2006,07,21,10,50,27.20
2006,07,21,10,51,27.20
2006,07,21,10,52,27.10
2006,07,21,10,53,27.10
2006,07,21,10,54,27.10
2006,07,21,10,55,27.20
2006,07,21,10,56,27.30
2006,07,21,10,57,27.30
2006,07,21,10,58,27.40
2006,07,21,10,59,27.40
2006,07,21,11,00,27.40
2006,07,21,11,01,27.50
2006,07,21,11,02,27.50
2006,07,21,11,03,27.60
2006,07,21,11,04,27.70
2006,07,21,11,05,27.80
2006,07,21,11,06,28.00
2006,07,21,11,07,28.00
2006,07,21,11,08,28.10
2006,07,21,11,09,28.10
2006,07,21,11,10,28.10
2006,07,21,11,11,28.00
2006,07,21,11,12,28.00
2006,07,21,11,13,27.90
2006,07,21,11,14,27.90
2006,07,21,11,15,27.90
2006,07,21,11,16,27.90
2006,07,21,11,17,28.00
2006,07,21,11,18,28.00
2006,07,21,11,19,28.00
2006,07,21,11,20,27.90
2006,07,21,11,21,27.90
2006,07,21,11,22,27.80
2006,07,21,11,23,27.80
2006,07,21,11,24,27.80
2006,07,21,11,25,27.70
2006,07,21,11,26,27.80
2006,07,21,11,27,27.80
2006,07,21,11,28,27.80
2006,07,21,11,29,27.90
2006,07,21,11,30,27.90
2006,07,21,11,31,27.90
2006,07,21,11,32,27.90
2006,07,21,11,33,27.90
2006,07,21,11,34,28.00
2006,07,21,11,35,28.00
2006,07,21,11,36,28.00
2006,07,21,11,37,28.10
2006,07,21,11,38,28.20
2006,07,21,11,39,28.30
2006,07,21,11,40,28.30
2006,07,21,11,41,28.40
2006,07,21,11,42,28.40
2006,07,21,11,43,28.40
2006,07,21,11,44,28.50
2006,07,21,11,45,28.50
2006,07,21,11,46,28.60
2006,07,21,11,47,28.70
2006,07,21,11,48,28.70
2006,07,21,11,49,28.80
2006,07,21,11,50,28.80
2006,07,21,11,51,28.70
2006,07,21,11,52,28.70
2006,07,21,11,53,28.70
2006,07,21,11,54,28.80
2006,07,21,11,55,28.80
2006,07,21,11,56,28.90
2006,07,21,11,57,29.00
2006,07,21,11,58,29.10
2006,07,21,11,59,29.00
2006,07,21,12,00,28.90
2006,07,21,12,01,28.80
2006,07,21,12,02,28.80
2006,07,21,12,03,28.90
2006,07,21,12,04,28.90
2006,07,21,12,05,28.80
2006,07,21,12,06,28.80
2006,07,21,12,07,28.90
2006,07,21,12,08,29.00
2006,07,21,12,09,29.10
2006,07,21,12,10,29.10
2006,07,21,12,11,29.10
2006,07,21,12,12,29.20
2006,07,21,12,13,29.20
2006,07,21,12,14,29.20
2006,07,21,12,15,29.20
2006,07,21,12,16,29.10
2006,07,21,12,17,29.10
2006,07,21,12,18,29.20
2006,07,21,12,19,29.20
2006,07,21,12,20,29.20
2006,07,21,12,21,29.10
2006,07,21,12,22,29.20
2006,07,21,12,23,29.20
2006,07,21,12,24,29.20
2006,07,21,12,25,29.20
2006,07,21,12,26,29.30
2006,07,21,12,27,29.40
2006,07,21,12,28,29.50
2006,07,21,12,29,29.60
2006,07,21,12,30,29.60
2006,07,21,12,31,29.60
2006,07,21,12,32,29.50
2006,07,21,12,33,29.50
2006,07,21,12,34,29.50
2006,07,21,12,35,29.50
2006,07,21,12,36,29.50
2006,07,21,12,37,29.60
2006,07,21,12,38,29.70
2006,07,21,12,39,29.70
2006,07,21,12,40,29.80
2006,07,21,12,41,29.80
2006,07,21,12,42,29.90
2006,07,21,12,43,29.80
2006,07,21,12,44,29.70
2006,07,21,12,45,29.70
2006,07,21,12,46,29.60
2006,07,21,12,47,29.50
2006,07,21,12,48,29.50
2006,07,21,12,49,29.60
2006,07,21,12,50,29.60
2006,07,21,12,51,29.70
2006,07,21,12,52,29.70
2006,07,21,12,53,29.70
2006,07,21,12,54,29.70
2006,07,21,12,55,29.60
2006,07,21,12,56,29.60
2006,07,21,12,57,29.50
2006,07,21,12,58,29.50
2006,07,21,12,59,29.50
2006,07,21,13,00,29.50
2006,07,21,13,01,29.50
2006,07,21,13,02,29.50
2006,07,21,13,03,29.50
2006,07,21,13,04,29.40
2006,07,21,13,05,29.50
2006,07,21,13,06,29.50
2006,07,21,13,07,29.50
2006,07,21,13,08,29.60
2006,07,21,13,09,29.60
2006,07,21,13,10,29.70
2006,07,21,13,11,29.70
2006,07,21,13,12,29.80
2006,07,21,13,13,30.00
2006,07,21,13,14,30.10
2006,07,21,13,15,30.20
2006,07,21,13,16,30.20
2006,07,21,13,17,30.20
2006,07,21,13,18,30.20
2006,07,21,13,19,30.20
2006,07,21,13,20,30.20
2006,07,21,13,21,30.20
2006,07,21,13,22,30.20
2006,07,21,13,23,30.20
2006,07,21,13,24,30.20
2006,07,21,13,25,30.20
2006,07,21,13,26,30.20
2006,07,21,13,27,30.10
2006,07,21,13,28,30.10
2006,07,21,13,29,30.20
2006,07,21,13,30,30.30
2006,07,21,13,31,30.30
2006,07,21,13,32,30.30
2006,07,21,13,33,30.30
2006,07,21,13,34,30.40
2006,07,21,13,35,30.40
2006,07,21,13,36,30.50
2006,07,21,13,37,30.50
2006,07,21,13,38,30.30
2006,07,21,13,39,30.20
2006,07,21,13,40,30.10
2006,07,21,13,41,30.10
2006,07,21,13,42,30.20
2006,07,21,13,43,30.30
2006,07,21,13,44,30.30
2006,07,21,13,45,30.30
2006,07,21,13,46,30.30
2006,07,21,13,47,30.30
2006,07,21,13,48,30.20
2006,07,21,13,49,30.20
2006,07,21,13,50,30.20
2006,07,21,13,51,30.10
2006,07,21,13,52,30.10
2006,07,21,13,53,30.00
2006,07,21,13,54,30.10
2006,07,21,13,55,30.20
2006,07,21,13,56,30.20
2006,07,21,13,57,30.40
2006,07,21,13,58,30.60
2006,07,21,13,59,30.60
2006,07,21,14,00,30.70
2006,07,21,14,01,30.70
2006,07,21,14,02,30.70
2006,07,21,14,03,30.80
2006,07,21,14,04,30.80
2006,07,21,14,05,30.70
2006,07,21,14,06,30.70
2006,07,21,14,07,30.60
2006,07,21,14,08,30.60
2006,07,21,14,09,30.60
2006,07,21,14,10,30.60
2006,07,21,14,11,30.60
2006,07,21,14,12,30.60
2006,07,21,14,13,30.60
2006,07,21,14,14,30.60
2006,07,21,14,15,30.70
2006,07,21,14,16,30.70
2006,07,21,14,17,30.70
2006,07,21,14,18,30.70
2006,07,21,14,19,30.70
2006,07,21,14,20,30.70
2006,07,21,14,21,30.80
2006,07,21,14,22,30.90
2006,07,21,14,23,30.90
2006,07,21,14,24,30.90
2006,07,21,14,25,30.80
2006,07,21,14,26,30.70
2006,07,21,14,27,30.70
2006,07,21,14,28,30.70
2006,07,21,14,29,30.80
2006,07,21,14,30,30.80
2006,07,21,14,31,30.90
2006,07,21,14,32,31.00
2006,07,21,14,33,31.10
2006,07,21,14,34,31.20
2006,07,21,14,35,31.30
2006,07,21,14,36,31.40
2006,07,21,14,37,31.60
2006,07,21,14,38,31.70
2006,07,21,14,39,31.80
2006,07,21,14,40,31.80
2006,07,21,14,41,31.90
2006,07,21,14,42,32.00
2006,07,21,14,43,32.10
2006,07,21,14,44,32.10
2006,07,21,14,45,32.10
2006,07,21,14,46,32.00
2006,07,21,14,47,32.00
2006,07,21,14,48,31.90
2006,07,21,14,49,31.80
2006,07,21,14,50,31.60
2006,07,21,14,51,31.40
2006,07,21,14,52,31.30
2006,07,21,14,53,31.10
2006,07,21,14,54,31.00
2006,07,21,14,55,30.90
2006,07,21,14,56,30.90
2006,07,21,14,57,30.90
2006,07,21,14,58,30.90
2006,07,21,14,59,30.90
2006,07,21,15,00,30.90
2006,07,21,15,01,30.90
2006,07,21,15,02,30.80
2006,07,21,15,03,30.70
2006,07,21,15,04,30.80
2006,07,21,15,05,30.80
2006,07,21,15,06,30.70
2006,07,21,15,07,30.70
2006,07,21,15,08,30.70
2006,07,21,15,09,30.70
2006,07,21,15,10,30.70
2006,07,21,15,11,30.70
2006,07,21,15,12,30.60
2006,07,21,15,13,30.60
2006,07,21,15,14,30.70
2006,07,21,15,15,30.70
2006,07,21,15,16,30.70
2006,07,21,15,17,30.70
2006,07,21,15,18,30.70
2006,07,21,15,19,30.70
2006,07,21,15,20,30.70
2006,07,21,15,21,30.70
2006,07,21,15,22,30.60
2006,07,21,15,23,30.60
2006,07,21,15,24,30.60
2006,07,21,15,25,30.70
2006,07,21,15,26,30.80
2006,07,21,15,27,31.00
2006,07,21,15,28,31.00
2006,07,21,15,29,31.00
2006,07,21,15,30,31.00
2006,07,21,15,31,31.10
2006,07,21,15,32,31.10
2006,07,21,15,33,31.20
2006,07,21,15,34,31.20
2006,07,21,15,35,31.30
2006,07,21,15,36,31.20
2006,07,21,15,37,31.20
2006,07,21,15,38,31.30
2006,07,21,15,39,31.30
2006,07,21,15,40,31.30
2006,07,21,15,41,31.40
2006,07,21,15,42,31.40
2006,07,21,15,43,31.40
2006,07,21,15,44,31.40
2006,07,21,15,45,31.40
2006,07,21,15,46,31.40
2006,07,21,15,47,31.40
2006,07,21,15,48,31.50
2006,07,21,15,49,31.60
2006,07,21,15,50,31.70
2006,07,21,15,51,31.70
2006,07,21,15,52,31.70
2006,07,21,15,53,31.70
2006,07,21,15,54,31.70
2006,07,21,15,55,31.70
2006,07,21,15,56,31.80
2006,07,21,15,57,31.80
2006,07,21,15,58,31.80
2006,07,21,15,59,31.70
2006,07,21,16,00,31.70
2006,07,21,16,01,31.80
2006,07,21,16,02,31.80
2006,07,21,16,03,31.90
2006,07,21,16,04,32.00
2006,07,21,16,05,32.00
2006,07,21,16,06,32.10
2006,07,21,16,07,32.10
2006,07,21,16,08,32.20
2006,07,21,16,09,32.20
2006,07,21,16,10,32.30
2006,07,21,16,11,32.30
2006,07,21,16,12,32.30
2006,07,21,16,13,32.30
2006,07,21,16,14,32.30
2006,07,21,16,15,32.40
2006,07,21,16,16,32.30
2006,07,21,16,17,32.30
2006,07,21,16,18,32.30
2006,07,21,16,19,32.30
2006,07,21,16,20,32.30
2006,07,21,16,21,32.40
2006,07,21,16,22,32.30
2006,07,21,16,23,32.30
2006,07,21,16,24,32.30
2006,07,21,16,25,32.40
2006,07,21,16,26,32.50
2006,07,21,16,27,32.60
2006,07,21,16,28,32.50
2006,07,21,16,29,32.50
2006,07,21,16,30,32.50
2006,07,21,16,31,32.60
2006,07,21,16,32,32.60
2006,07,21,16,33,32.50
2006,07,21,16,34,32.50
2006,07,21,16,35,32.40
2006,07,21,16,36,32.30
2006,07,21,16,37,32.30
2006,07,21,16,38,32.30
2006,07,21,16,39,32.30
2006,07,21,16,40,32.30
2006,07,21,16,41,32.30
2006,07,21,16,42,32.30
2006,07,21,16,43,32.40
2006,07,21,16,44,32.30
2006,07,21,16,45,32.30
2006,07,21,16,46,32.30
2006,07,21,16,47,32.20
2006,07,21,16,48,32.20
2006,07,21,16,49,32.20
2006,07,21,16,50,32.30
2006,07,21,16,51,32.30
2006,07,21,16,52,32.30
2006,07,21,16,53,32.20
2006,07,21,16,54,32.20
2006,07,21,16,55,32.20
2006,07,21,16,56,32.20
2006,07,21,16,57,32.10
2006,07,21,16,58,32.10
2006,07,21,16,59,32.10
2006,07,21,17,00,32.10
2006,07,21,17,01,32.20
2006,07,21,17,02,32.20
2006,07,21,17,03,32.20
2006,07,21,17,04,32.40
2006,07,21,17,05,32.60
2006,07,21,17,06,32.70
2006,07,21,17,07,32.70
2006,07,21,17,08,32.80
2006,07,21,17,09,32.80
2006,07,21,17,10,32.80
2006,07,21,17,11,32.70
2006,07,21,17,12,32.60
2006,07,21,17,13,32.40
2006,07,21,17,14,32.20
2006,07,21,17,15,32.10
2006,07,21,17,16,31.90
2006,07,21,17,17,31.70
2006,07,21,17,18,31.50
2006,07,21,17,19,31.40